EA5CBT-13 Weather Reports


time (UTC)temp
F
wind
direction
speed
knots
gust
knots
rain 1hr
in
rain 24hr
in
rain mn
in
humidity
%
barometer
mb
20260504081549 67 225 3.5 5.2 0.00 0.00 0.00 75 1010.5
20260504080541 67 225 2.6 3.5 0.00 0.00 0.00 76 1010.4
20260504050529 65 225 0.9 1.7 0.00 0.00 0.00 82 1009.7
20260504045540 65 225 0.9 3.5 0.00 0.00 0.00 83 1009.7
20260504044613 65 218 1.7 2.6 0.00 0.00 0.00 83 1009.7
20260504043626 65 201 2.6 3.5 0.00 0.00 0.00 83 1009.6
20260504042558 64 180 3.5 4.3 0.00 0.00 0.00 83 1009.6
20260504041551 64 180 2.6 3.5 0.00 0.00 0.00 83 1009.7
20260504040603 65 225 0.9 1.7 0.00 0.00 0.00 83 1009.6
20260504035557 65 225 0.9 1.7 0.00 0.00 0.00 83 1009.7
20260504034528 65 187 1.7 2.6 0.00 0.00 0.00 83 1009.8
20260504033521 65 180 1.7 3.5 0.00 0.00 0.00 83 1010.0
20260504032634 65 203 0.9 1.7 0.00 0.00 0.00 83 1010.1
20260504031606 65 203 0.9 1.7 0.00 0.00 0.00 83 1010.1
20260504030558 65 180 2.6 3.5 0.00 0.00 0.00 84 1010.2
20260504025550 64 225 0.9 1.7 0.00 0.00 0.00 84 1010.3
20260504024543 64 225 0.0 1.7 0.00 0.00 0.00 84 1010.3
20260504023557 64 225 0.0 1.7 0.00 0.00 0.00 84 1010.3
20260504022529 64 225 0.0 1.7 0.00 0.00 0.00 85 1010.3
20260504021521 64 225 0.9 1.7 0.00 0.00 0.00 84 1010.3
20260504020614 64 0.0 0.9 0.00 0.00 0.00 84 1010.3
20260504015606 64 208 1.7 2.6 0.00 0.00 0.00 84 1010.4
20260504014559 64 211 0.9 1.7 0.00 0.00 0.00 84 1010.5
20260504013552 64 186 2.6 3.5 0.00 0.00 0.00 83 1010.6
20260504012544 64 183 2.6 3.5 0.00 0.00 0.00 82 1010.6
20260504011537 65 180 2.6 4.3 0.00 0.00 0.00 81 1010.6
20260504010530 65 181 1.7 3.5 0.00 0.00 0.00 80 1010.7
20260504005522 66 180 1.7 2.6 0.00 0.00 0.00 81 1010.7
20260504004616 66 185 2.6 4.3 0.00 0.00 0.00 81 1010.7
20260504003609 66 186 2.6 3.5 0.00 0.00 0.00 81 1010.8
20260504002641 66 180 3.5 4.3 0.00 0.00 0.00 80 1010.9
20260504001613 66 180 2.6 4.3 0.00 0.00 0.00 80 1010.9
20260504000546 66 225 2.6 3.5 0.00 0.00 0.00 80 1011.0
20260503235538 66 203 3.5 7.0 0.00 0.00 0.00 80 1010.8
20260503234612 66 189 2.6 4.3 0.00 0.00 0.00 80 1010.9
20260503233523 66 225 1.7 3.5 0.00 0.00 0.00 80 1011.0
20260503232516 66 214 2.6 3.5 0.00 0.00 0.00 81 1011.1
20260503231609 66 199 1.7 3.5 0.00 0.00 0.00 82 1011.1
20260503230602 66 180 2.6 5.2 0.00 0.00 0.00 83 1011.1
20260503225554 66 180 2.6 5.2 0.00 0.00 0.00 83 1011.1
20260503224547 66 180 3.5 4.3 0.00 0.00 0.00 83 1011.2
20260503223539 66 180 2.6 4.3 0.00 0.00 0.00 83 1011.2
20260503222532 66 180 3.5 5.2 0.00 0.00 0.00 82 1011.2
20260503221525 66 180 2.6 4.3 0.00 0.00 0.00 82 1011.2
20260503220517 66 180 3.5 4.3 0.00 0.00 0.00 82 1011.3
20260503215611 66 180 3.5 6.1 0.00 0.00 0.00 81 1011.4
20260503214624 66 180 2.6 6.1 0.00 0.00 0.00 80 1011.4
20260503213554 66 180 3.5 7.0 0.00 0.00 0.00 81 1011.5
20260503212546 66 180 2.6 5.2 0.00 0.00 0.00 81 1011.6
20260503211539 66 180 1.7 3.5 0.00 0.00 0.00 81 1011.6
20260503210532 66 180 3.5 5.2 0.00 0.00 0.00 81 1011.5
20260503205523 66 173 3.5 4.3 0.00 0.00 0.00 82 1011.4
20260503204537 66 167 2.6 4.3 0.00 0.00 0.00 82 1011.4
20260503203608 66 144 2.6 3.5 0.00 0.00 0.00 82 1011.4
20260503202600 66 170 2.6 6.1 0.00 0.00 0.00 82 1011.3
20260503201553 66 166 3.5 6.1 0.00 0.00 0.00 82 1011.2
20260503200546 66 135 3.5 4.3 0.00 0.00 0.00 82 1011.1
20260503195538 66 135 1.7 3.5 0.00 0.00 0.00 82 1010.8
20260503194610 66 126 2.6 5.2 0.00 0.00 0.00 82 1010.7
20260503193522 66 129 2.6 3.5 0.00 0.00 0.00 81 1010.6
20260503192615 66 130 2.6 4.3 0.00 0.00 0.00 81 1010.3
20260503191607 66 125 2.6 5.2 0.00 0.00 0.00 81 1010.1
20260503190559 67 45 3.5 4.3 0.00 0.00 0.00 81 1010.1
20260503185551 67 131 1.7 3.5 0.00 0.00 0.00 80 1009.9
20260503184543 67 135 2.6 3.5 0.00 0.00 0.00 80 1009.7
20260503183535 67 118 3.5 5.2 0.00 0.00 0.00 79 1009.7
20260503182527 67 136 3.5 6.1 0.00 0.00 0.00 79 1009.7
20260503181519 67 131 3.5 6.1 0.00 0.00 0.00 78 1009.6
20260503180612 68 118 2.6 3.5 0.00 0.00 0.00 77 1009.4
20260503175625 68 103 2.6 4.3 0.00 0.00 0.00 76 1009.4
20260503174617 68 71 2.6 5.2 0.00 0.00 0.00 75 1009.2
20260503173550 69 103 3.5 7.8 0.00 0.00 0.00 74 1009.0
20260503172541 70 135 3.5 6.1 0.00 0.00 0.00 72 1009.0
20260503171555 71 108 4.3 8.7 0.00 0.00 0.00 72 1008.9
20260503170527 71 135 2.6 3.5 0.00 0.00 0.00 71 1008.9
20260503150615 73 128 5.2 7.8 0.00 0.00 0.00 66 1009.6
20260503130522 74 157 3.5 7.0 0.00 0.00 0.00 62 1011.0
20260503110551 76 45 3.5 4.3 0.00 0.00 0.00 60 1012.2